GW0026 Weather Reports


time (UTC)temp
F
wind
direction
speed
knots
gust
knots
rain 1hr
in
rain 24hr
in
rain mn
in
humidity
%
barometer
mb
20260506182935 52 88 0.9 0.9 0.17 0.86 0.86 99 1005.3
20260506182432 52 10 0.0 0.0 0.24 0.84 0.84 99 1005.5
20260506181929 52 44 0.0 0.9 0.26 0.83 0.83 99 1005.2
20260506181427 52 349 0.0 0.0 0.19 0.80 0.80 99 1005.4
20260506180924 52 359 0.0 0.0 0.24 0.79 0.79 99 1005.4
20260506180420 52 352 0.0 0.0 0.17 0.77 0.77 99 1005.1
20260506175917 51 332 0.0 0.0 0.12 0.75 0.75 99 1005.3
20260506175414 51 21 0.9 0.9 0.07 0.74 0.74 99 1005.6
20260506174911 52 29 0.0 0.9 0.12 0.73 0.73 99 1005.2
20260506174408 52 12 0.0 0.0 0.12 0.73 0.73 99 1005.4
20260506173900 52 12 0.9 0.9 0.05 0.71 0.71 99 1005.4
20260506173356 52 46 0.0 0.0 0.07 0.70 0.70 99 1005.5
20260506172854 52 320 0.0 0.0 0.12 0.70 0.70 99 1005.6
20260506172350 53 1 0.0 0.0 0.12 0.69 0.69 99 1005.4
20260506171848 53 36 0.0 0.0 0.19 0.68 0.68 99 1005.5
20260506171344 52 90 0.0 0.9 0.12 0.67 0.67 99 1005.6
20260506170842 52 104 0.9 0.9 0.07 0.65 0.65 99 1005.4
20260506170338 53 354 0.0 0.0 0.12 0.65 0.65 99 1006.0
20260506165837 53 357 0.9 0.9 0.17 0.64 0.64 99 1005.3
20260506165335 53 14 0.0 0.0 0.24 0.63 0.63 99 1005.9
20260506164831 53 41 0.0 0.0 0.19 0.61 0.61 99 1005.8
20260506164328 53 0 0.0 0.0 0.19 0.59 0.59 99 1006.0
20260506163825 53 6 0.0 0.0 0.17 0.58 0.58 99 1006.2
20260506163320 53 349 0.0 0.0 0.12 0.56 0.56 99 1006.0
20260506162815 53 359 0.0 0.9 0.14 0.55 0.55 99 1006.0
20260506162314 54 354 0.0 0.0 0.19 0.54 0.54 99 1006.0
20260506161811 54 48 0.0 0.0 0.07 0.52 0.52 99 1006.3
20260506161308 54 67 0.9 0.9 0.05 0.51 0.51 99 1006.0
20260506160806 54 349 0.0 0.0 0.12 0.51 0.51 99 1006.2
20260506160302 54 4 0.0 0.0 0.12 0.50 0.50 99 1006.2
20260506155801 54 8 0.0 0.0 0.12 0.49 0.49 99 1006.6
20260506155257 54 15 0.9 0.9 0.19 0.48 0.48 99 1006.4
20260506153410 54 47 0.0 0.0 0.19 0.43 0.43 99 1006.8
20260506152907 54 351 0.0 0.0 0.19 0.42 0.42 99 1006.7
20260506152404 54 3 0.0 0.0 0.17 0.40 0.40 99 1006.6
20260506151903 54 61 0.0 0.0 0.19 0.39 0.39 99 1006.9
20260506151359 54 353 0.0 0.0 0.17 0.38 0.38 99 1006.8
20260506150857 54 125 0.9 0.9 0.12 0.36 0.36 99 1007.0
20260506150353 55 61 0.0 0.9 0.19 0.35 0.35 99 1006.9
20260506145850 55 0 0.0 0.0 0.17 0.34 0.34 99 1007.0
20260506145346 55 44 0.0 0.0 0.19 0.33 0.33 99 1007.0
20260506144844 55 345 0.0 0.0 0.14 0.31 0.31 99 1007.2
20260506144340 55 349 0.0 0.0 0.12 0.30 0.30 99 1007.2
20260506143838 55 3 0.0 0.0 0.17 0.29 0.29 99 1007.4
20260506143335 55 3 0.0 0.0 0.19 0.28 0.28 99 1007.4
20260506142833 55 352 0.0 0.0 0.12 0.26 0.26 99 1007.4
20260506142331 55 13 0.0 0.0 0.12 0.25 0.25 99 1007.6
20260506141829 55 262 0.0 0.9 0.12 0.24 0.24 99 1007.6
20260506141327 56 50 0.0 0.0 0.12 0.23 0.23 99 1007.5
20260506140825 56 325 0.0 0.0 0.12 0.22 0.22 99 1007.9
20260506140321 56 6 0.0 0.0 0.12 0.21 0.21 99 1007.6
20260506135818 56 13 0.0 0.0 0.12 0.20 0.20 99 1007.9
20260506135314 56 354 0.0 0.0 0.12 0.19 0.19 99 1007.6
20260506134811 56 359 0.0 0.0 0.14 0.18 0.18 99 1007.2
20260506134308 56 0 0.0 0.0 0.07 0.17 0.17 99 1007.2
20260506133805 56 358 0.0 0.0 0.05 0.16 0.16 99 1007.4
20260506133302 56 358 0.0 0.0 0.12 0.16 0.16 99 1007.3
20260506132758 56 359 0.0 0.0 0.12 0.15 0.15 99 1007.1
20260506132255 56 12 0.0 0.0 0.05 0.14 0.14 99 1007.2
20260506131754 56 63 0.0 0.0 0.07 0.13 0.13 99 1007.3
20260506131249 56 338 0.0 0.0 0.07 0.13 0.13 99 1007.4
20260506130746 56 21 0.0 0.0 0.05 0.12 0.12 99 1007.3
20260506130243 56 23 0.0 0.0 0.12 0.12 0.12 99 1007.4
20260506125741 56 15 0.0 0.0 0.12 0.11 0.11 99 1007.4
20260506125239 56 356 0.0 0.0 0.12 0.10 0.10 99 1007.6
20260506124737 56 354 0.0 0.0 0.07 0.09 0.09 99 1007.6
20260506124234 56 1 0.0 0.0 0.05 0.08 0.08 99 1007.6
20260506123732 56 3 0.0 0.0 0.12 0.08 0.08 99 1007.8
20260506123230 56 14 0.0 0.0 0.07 0.07 0.07 99 1007.7
20260506122726 56 9 0.0 0.0 0.12 0.06 0.06 99 1007.7
20260506122224 55 350 0.0 0.0 0.12 0.06 0.06 99 1007.9
20260506121722 56 358 0.0 0.0 0.14 0.05 0.05 99 1008.1
20260506121218 55 3 0.0 0.0 0.07 0.04 0.04 99 1008.0
20260506120716 56 3 0.0 0.0 0.05 0.03 0.03 99 1008.0
20260506120213 56 354 0.0 0.0 0.05 0.03 0.03 99 1008.2
20260506115711 55 351 0.0 0.0 0.00 0.02 0.02 99 1008.2
20260506115209 55 341 0.0 0.0 0.00 0.02 0.02 99 1007.8
20260506114706 55 356 0.0 0.0 0.00 0.02 0.02 99 1007.4
20260506114204 55 328 0.0 0.0 0.00 0.02 0.02 99 1007.4
20260506113703 55 12 0.0 0.0 0.00 0.02 0.02 99 1007.4
20260506113200 55 340 0.0 0.0 0.07 0.02 0.02 99 1007.2
20260506112655 55 356 0.0 0.0 0.07 0.02 0.02 99 1007.2
20260506112154 55 353 0.0 0.0 0.00 0.01 0.01 99 1007.4
20260506111651 55 349 0.0 0.0 0.00 0.01 0.01 99 1007.5
20260506111149 55 358 0.0 0.0 0.00 0.01 0.01 99 1007.8
20260506110646 55 339 0.0 0.0 0.00 0.01 0.01 99 1007.7
20260506110143 55 356 0.0 0.0 0.00 0.01 0.01 99 1007.5
20260506105639 55 352 0.0 0.0 0.00 0.01 0.01 99 1007.6
20260506105137 54 349 0.0 0.0 0.00 0.01 0.01 99 1007.5
20260506104634 54 358 0.0 0.0 0.00 0.01 0.01 99 1007.3
20260506104132 54 352 0.0 0.0 0.00 0.01 0.01 99 1007.7
20260506103629 54 351 0.0 0.0 0.00 0.01 0.01 99 1007.4
20260506103126 54 343 0.0 0.0 0.00 0.01 0.01 99 1007.1
20260506102624 54 349 0.0 0.0 0.00 0.01 0.01 99 1007.6
20260506102121 54 358 0.0 0.0 0.00 0.01 0.01 99 1007.3
20260506101617 54 349 0.0 0.0 0.00 0.01 0.01 99 1007.2
20260506101114 54 349 0.0 0.0 0.00 0.01 0.01 99 1007.4
20260506100613 54 353 0.0 0.0 0.00 0.01 0.01 99 1007.4
20260506100110 54 348 0.0 0.0 0.00 0.01 0.01 99 1007.4
20260506095609 54 352 0.0 0.0 0.00 0.01 0.01 99 1006.9
20260506095105 54 352 0.0 0.0 0.00 0.01 0.01 99 1007.0
20260506094603 54 352 0.0 0.0 0.00 0.01 0.01 99 1007.2
20260506094100 54 352 0.0 0.0 0.00 0.01 0.01 99 1007.0
20260506093559 54 351 0.0 0.0 0.00 0.01 0.01 99 1007.0
20260506093056 54 355 0.0 0.0 0.00 0.01 0.01 99 1007.2
20260506092554 53 358 0.0 0.0 0.00 0.01 0.01 99 1007.1
20260506092050 53 349 0.0 0.0 0.00 0.01 0.01 99 1007.1
20260506091548 53 347 0.0 0.0 0.00 0.01 0.01 99 1007.0
20260506091045 54 348 0.0 0.0 0.00 0.01 0.01 99 1007.3
20260506090543 54 349 0.0 0.0 0.00 0.01 0.01 99 1007.2
20260506090039 54 348 0.0 0.0 0.00 0.01 0.01 99 1007.4
20260506085536 54 350 0.0 0.0 0.00 0.01 0.01 99 1007.1
20260506085032 54 358 0.0 0.0 0.00 0.01 0.01 99 1007.2
20260506084530 54 349 0.0 0.0 0.00 0.01 0.01 99 1006.9
20260506084025 54 347 0.0 0.0 0.00 0.01 0.01 99 1007.6
20260506083523 54 347 0.0 0.0 0.00 0.01 0.01 99 1007.4
20260506083020 54 339 0.0 0.0 0.00 0.01 0.01 99 1007.3
20260506082517 54 338 0.0 0.0 0.00 0.01 0.01 99 1007.4
20260506082013 54 338 0.0 0.0 0.00 0.01 0.01 98 1007.5
20260506081511 54 338 0.0 0.0 0.00 0.01 0.01 98 1007.6
20260506081009 54 338 0.0 0.0 0.00 0.01 0.01 98 1007.7
20260506080506 54 338 0.0 0.0 0.00 0.01 0.01 98 1007.6
20260506073449 55 344 0.0 0.0 0.00 0.01 0.01 97 1007.9
20260506072946 55 344 0.0 0.0 0.00 0.01 0.01 97 1008.1
20260506072443 55 343 0.0 0.0 0.00 0.01 0.01 97 1008.2
20260506071941 55 341 0.0 0.0 0.00 0.01 0.01 97 1008.1
20260506071439 55 339 0.0 0.0 0.00 0.01 0.01 96 1007.9
20260506070936 55 339 0.0 0.0 0.00 0.01 0.01 96 1008.1
20260506070433 55 347 0.0 0.0 0.00 0.01 0.01 96 1007.9
20260506062410 56 1 0.0 0.0 0.00 0.01 0.01 97 1008.1
20260506061906 57 347 0.0 0.9 0.00 0.01 0.01 98 1008.5
20260506061403 57 351 0.9 0.9 0.00 0.01 0.01 98 1008.3
20260506060901 57 356 0.0 0.0 0.00 0.01 0.01 98 1008.4
20260506060358 57 352 0.0 0.0 0.00 0.01 0.01 98 1008.2
20260506051330 59 11 0.0 0.0 0.05 0.01 0.01 98 1008.4
20260506050828 59 0 0.0 0.0 0.00 0.00 0.00 98 1008.3
20260506050325 59 359 0.0 0.0 0.00 0.00 0.00 97 1008.1
20260506044816 59 335 0.0 0.0 0.00 0.00 0.00 96 1008.3
20260506044314 60 356 0.0 0.0 0.00 0.00 0.00 95 1008.3
20260506043810 60 352 0.0 0.0 0.00 0.00 0.00 94 1008.5
20260506043308 60 353 0.0 0.0 0.00 0.00 0.00 93 1008.3
20260506042806 60 11 0.0 0.0 0.00 0.00 0.00 92 1008.2
20260506042305 60 352 0.0 0.0 0.00 0.00 0.00 92 1008.7
20260506041803 60 344 0.0 0.0 0.00 0.00 0.00 92 1008.6
20260506041259 60 306 0.9 1.7 0.00 0.00 0.00 92 1008.5
20260506040757 61 351 0.0 0.0 0.00 0.00 0.00 92 1008.5
20260506040254 61 356 0.0 0.0 0.00 0.00 0.00 92 1008.3
20260506035750 61 345 0.0 0.0 0.00 0.12 0.12 92 1008.5
20260506035247 61 355 0.0 0.0 0.00 0.12 0.12 92 1008.3
20260506034744 61 349 0.0 0.0 0.00 0.12 0.12 91 1008.1
20260506034242 61 342 0.0 0.0 0.00 0.12 0.12 91 1008.2
20260506033739 61 349 0.0 0.9 0.00 0.12 0.12 91 1008.2
20260506033236 61 347 0.0 0.0 0.00 0.12 0.12 91 1008.2
20260506032732 61 351 0.0 0.0 0.00 0.12 0.12 91 1008.2
20260506032229 61 343 0.0 0.0 0.00 0.12 0.12 91 1008.2
20260506031726 61 355 0.0 0.0 0.00 0.12 0.12 91 1008.3
20260506031223 61 346 0.0 0.0 0.00 0.12 0.12 91 1008.0
20260506030722 61 339 0.0 0.0 0.00 0.12 0.12 92 1007.9
20260506030219 61 356 0.0 0.0 0.00 0.12 0.12 92 1007.9
20260506025715 61 347 0.0 0.0 0.00 0.12 0.12 92 1008.1
20260506025212 61 347 0.0 0.9 0.00 0.12 0.12 92 1007.8
20260506024709 61 352 0.0 0.0 0.00 0.12 0.12 92 1008.0
20260506024205 61 357 0.0 0.0 0.00 0.12 0.12 92 1007.9
20260506023702 61 351 0.0 0.0 0.00 0.12 0.12 92 1007.7
20260506023159 61 0 0.0 0.0 0.00 0.12 0.12 92 1007.8
20260506022656 60 355 0.0 0.0 0.00 0.12 0.12 92 1007.7
20260506022153 60 352 0.0 0.0 0.00 0.12 0.12 92 1007.6
20260506021652 61 352 0.0 0.0 0.00 0.12 0.12 92 1007.7
20260506021148 61 346 0.0 0.0 0.00 0.12 0.12 92 1008.0
20260506020645 61 353 0.0 0.0 0.00 0.12 0.12 92 1007.6
20260506020143 61 352 0.0 0.0 0.00 0.12 0.12 92 1007.6
20260506015640 61 356 0.0 0.0 0.00 0.12 0.12 92 1007.7
20260506015137 61 356 0.0 0.0 0.00 0.12 0.12 92 1007.8
20260506014635 61 353 0.0 0.0 0.00 0.12 0.12 92 1007.5
20260506014130 61 347 0.0 0.0 0.00 0.12 0.12 92 1007.5
20260506013629 61 5 0.0 0.0 0.00 0.12 0.12 92 1007.2
20260506013125 61 3 0.0 0.0 0.00 0.12 0.12 91 1007.2
20260506012621 61 353 0.0 0.0 0.00 0.12 0.12 91 1006.9
20260506012118 61 353 0.0 0.0 0.00 0.12 0.12 91 1006.9
20260506011616 61 353 0.0 0.0 0.00 0.12 0.12 90 1007.2
20260506011111 61 3 0.0 0.0 0.00 0.12 0.12 90 1006.9
20260506010606 61 353 0.0 0.0 0.00 0.12 0.12 90 1006.9
20260506005559 62 353 0.0 0.0 0.00 0.12 0.12 90 1006.8
20260506005055 62 356 0.0 0.0 0.00 0.12 0.12 90 1007.0
20260506004552 62 1 0.0 0.0 0.00 0.12 0.12 89 1007.2
20260506004049 62 354 0.0 0.0 0.00 0.12 0.12 89 1006.9
20260506003545 61 357 0.0 0.9 0.00 0.12 0.12 90 1006.9
20260506003042 61 353 0.0 0.0 0.00 0.12 0.12 90 1006.6
20260506002537 61 29 0.0 0.0 0.00 0.12 0.12 90 1006.2
20260506002033 61 27 0.0 0.0 0.00 0.12 0.12 90 1005.9
20260506001530 61 353 0.0 0.0 0.00 0.12 0.12 89 1006.4
20260506001027 61 353 0.0 0.0 0.00 0.12 0.12 88 1006.0
20260506000525 62 349 0.0 0.0 0.00 0.12 0.12 87 1006.2
20260506000022 62 2 0.0 0.0 0.00 0.12 0.12 86 1006.0
20260505235520 63 3 0.0 0.0 0.00 0.12 0.12 85 1006.2
20260505235016 63 356 0.0 0.0 0.00 0.12 0.12 85 1005.9
20260505234514 63 358 0.0 0.0 0.00 0.12 0.12 84 1005.8
20260505234010 64 1 0.0 0.0 0.00 0.12 0.12 83 1006.0
20260505233508 64 7 0.0 0.0 0.00 0.12 0.12 82 1006.3
20260505233005 64 0 0.0 0.0 0.00 0.12 0.12 81 1005.9
20260505232503 64 17 0.0 0.0 0.00 0.12 0.12 80 1005.9
20260505232000 65 349 0.0 0.0 0.00 0.12 0.12 80 1005.3
20260505231457 65 334 0.0 0.0 0.00 0.12 0.12 79 1005.4
20260505230955 64 345 0.9 0.9 0.00 0.12 0.12 79 1005.3
20260505230453 64 299 0.0 0.9 0.00 0.12 0.12 80 1005.3
20260505225949 64 41 0.0 0.0 0.00 0.12 0.12 80 1005.2
20260505225446 64 246 0.9 0.9 0.00 0.12 0.12 80 1005.3
20260505224942 64 359 0.9 0.9 0.00 0.12 0.12 81 1005.2
20260505224439 64 353 0.0 0.9 0.00 0.12 0.12 81 1005.1
20260505223936 64 219 0.9 1.7 0.00 0.12 0.12 81 1005.2
20260505223433 65 280 1.7 1.7 0.00 0.12 0.12 79 1005.2
20260505222930 65 280 3.5 6.1 0.00 0.12 0.12 78 1005.3
20260505222426 65 96 0.0 0.9 0.00 0.12 0.12 80 1005.4
20260505221922 65 15 1.7 2.6 0.00 0.12 0.12 79 1005.3
20260505221419 65 154 1.7 1.7 0.00 0.12 0.12 78 1005.6
20260505220916 65 77 2.6 4.3 0.00 0.12 0.12 78 1005.5
20260505220413 66 200 1.7 4.3 0.00 0.12 0.12 76 1005.8
20260505215911 67 197 2.6 4.3 0.00 0.12 0.12 73 1005.9
20260505215409 67 236 1.7 1.7 0.00 0.12 0.12 70 1005.6
20260505214907 68 79 0.9 0.9 0.00 0.12 0.12 67 1005.3
20260505214404 68 87 0.9 1.7 0.00 0.12 0.12 67 1005.2
20260505213901 67 312 1.7 1.7 0.00 0.12 0.12 68 1004.9
20260505213359 68 286 3.5 4.3 0.00 0.12 0.12 68 1004.6
20260505212855 68 35 0.9 2.6 0.00 0.12 0.12 68 1004.3
20260505212352 68 285 0.0 0.9 0.00 0.12 0.12 69 1004.5
20260505211848 68 291 0.0 0.9 0.00 0.12 0.12 69 1004.5
20260505211346 69 16 0.9 0.9 0.00 0.12 0.12 68 1004.6
20260505210842 69 204 1.7 2.6 0.00 0.12 0.12 68 1004.9
20260505210339 70 359 1.7 2.6 0.00 0.12 0.12 67 1004.9
20260505205836 70 282 0.9 0.9 0.00 0.12 0.12 68 1004.6
20260505205334 71 136 0.9 1.7 0.00 0.12 0.12 67 1004.5
20260505204831 71 340 0.0 0.0 0.00 0.12 0.12 73 1004.1
20260505204328 71 232 1.7 4.3 0.00 0.12 0.12 74 1003.9
20260505203826 71 14 0.0 0.9 0.00 0.12 0.12 73 1003.5
20260505203322 71 334 0.9 0.9 0.00 0.12 0.12 75 1003.4
20260505202818 71 349 0.9 0.9 0.00 0.12 0.12 77 1003.5
20260505202315 70 201 0.0 0.9 0.00 0.12 0.12 79 1003.5
20260505201811 70 342 0.9 0.9 0.00 0.12 0.12 81 1003.7
20260505201309 68 22 0.9 0.9 0.00 0.12 0.12 85 1003.6
20260505200807 67 351 0.9 0.9 0.00 0.12 0.12 90 1003.7
20260505200304 66 341 0.0 0.0 0.00 0.12 0.12 92 1003.7
20260505195759 66 344 0.0 0.0 0.00 0.12 0.12 94 1003.6
20260505195257 65 14 0.0 0.0 0.00 0.12 0.12 93 1003.4
20260505194754 64 31 0.9 0.9 0.12 0.12 0.12 89 1003.8
20260505194251 65 131 1.7 1.7 0.31 0.12 0.12 88 1004.4
20260505193746 69 225 2.6 4.3 0.19 0.10 0.10 79 1004.9
20260505193244 72 298 1.7 2.6 0.00 0.07 0.07 59 1004.4
20260505192742 73 347 0.0 0.0 0.00 0.07 0.07 61 1003.3
20260505192239 73 272 0.9 4.3 0.00 0.07 0.07 57 1003.0
20260505191737 74 340 1.7 1.7 0.00 0.07 0.07 56 1003.1
20260505191236 80 313 9.6 17.4 0.00 0.07 0.07 42 1003.4
20260505190731 81 340 0.9 0.9 0.00 0.07 0.07 40 1002.5
20260505190226 81 36 1.7 2.6 0.00 0.07 0.07 39 1002.3
20260505185722 81 356 1.7 2.6 0.00 0.07 0.07 38 1002.4
20260505185219 82 302 2.6 2.6 0.00 0.07 0.07 39 1002.4
20260505184715 82 82 2.6 2.6 0.00 0.07 0.07 39 1002.4
20260505184213 82 73 2.6 4.3 0.00 0.07 0.07 37 1002.5
20260505183709 82 278 3.5 7.0 0.00 0.07 0.07 38 1002.3
20260505183207 82 342 4.3 8.7 0.00 0.07 0.07 38 1002.4